Location: Nelson
(41.2830°S, 173.2830°E)
Time: 10:59:20
(UTC+13:00)

H-2A R/B - Pass Details

Date: 24 January 2019
Orbit: 263 x 32957 km, 27.9° (Epoch: 15 February)

Event Time Altitude Azimuth Distance (km) Brightness Sun altitude
Rises 22:05:38 0° 326° (NW) 2,396 4.5 -11.9°
Reaches altitude 10° 22:07:23 10° 348° (NNW) 1,967 3.9 -12.2°
Maximum altitude 22:10:39 20° 38° (NE) 2,279 3.8 -12.6°
Drops below altitude 10° 22:19:20 10° 80° (E) 5,789 6.0 -13.9°
Sets 22:32:38 0° 90° (E) 10,934 7.5 -15.7°
